ROMMA est une association bénévole à but non lucratif. Votre soutien est indispensable : ADHERER à ROMMA ou FAIRE un DON

Val-d'Arly - (73, Savoie)

Beaufortain (2050 m)   Longitude: 06° 35' 21" E   Latitude: 45° 46' 53" N Station romma n°118
 

Détail journalier du     <<     >>

Température Precipitation Humidité Vent Dir Rafale Dir. rafale Ensol.
Heure (°C) (mm) (%) (km/h) (km/h) (min)
01:00 13.707211OSO15OSO0
02:00 13.407612O16O0
03:00 13.107414O18O0
04:00 12.707614ONO19ONO0
05:00 12.807714OSO21ONO0
06:00 13.007118OSO27OSO0
07:00 12.707316O24OSO20
08:00 12.907413O19O50
09:00 14.406713OSO26SO60
10:00 15.206411OSO18OSO60
11:00 15.105910ONO23OSO50
12:00 16.30557NE26NNO50
13:00 15.605820ONO43ONO60
14:00 15.905917ONO34NNO60
15:00 16.804917NO35ONO40
16:00 15.705616NO29NO10
17:00 17.305811ONO21ONO20
18:00 16.30638O19ONO10
19:00 16.405611NO34ONO60
20:00 15.506117ONO31O30
21:00 15.306420O31O0
22:00 15.206717O31ONO0
23:00 15.206815ONO24ONO0
minuit 14.307319O31O0

Graphique du 20-07-2019

 

Serveur OMMA